Погода в Рукумкоте

Непал     28°37′12″N   82°36′53″E
темп.,
°C
ветер,
м/с
пор.,
м/с
влажн.,
%
обл.,
%
осадки,
мм/ч
давл.,
гПа
погр.,
м
8 марта, пн
пн823:45+9всв23500 0.0 101830
02:45+8всв23500 0.0 101735
05:45+9св224723 0.0 101725
08:45+18з00280 0.0 1020346
11:45+21з472242 0.0 10183066
14:45+21з582398 0.0 10153042
17:45+17з243397 0.0 1015132
20:45+11всв224759 0.0 101824
9 марта, вт
вт923:45+9всв235430 0.0 101831
02:45+8всв23540 0.0 101730
05:45+7всв23510 0.0 101832
08:45+17всв11290 0.0 1019326
11:45+21з45150 0.0 10182381
14:45+22з44160 0.0 10142899
17:45+17з23290 0.0 1015101
20:45+11всв22370 0.0 101824
10 марта, ср
ср1023:45+10всв23390 0.0 101829
02:45+9всв23400 0.0 101730
05:45+9всв23400 0.0 101730
08:45+18всв11250 0.0 1018286
11:45+22з45172 0.0 10173436
14:45+22зюз452184 0.0 10142880
17:45+18зюз242992 0.0 1013207
20:45+12всв334399 0.1 101748
11 марта, чт
чт1123:45+9всв235369 0.3 101734
02:45+9всв33496 0.1 101735
05:45+9всв33453 0.1 101736
08:45+18всв12250 0.0 1019265
11:45+23з33150 0.0 10173462
14:45+23з441510 0.0 10153572
17:45+19зюз242625 0.0 1015176
20:45+13всв223399 0.0 101925
12 марта, пт
пт1223:45+10всв234149 0.0 102031
02:45+9всв23410 0.0 101832
05:45+9всв33389 0.0 101932
08:45+19св122250 0.0 1021278
11:45+23з451475 0.0 10192886
14:45+22зюз5517100 0.0 10173278
17:45+17зсз233199 0.0 101789
20:45+12всв223995 0.0 101927